Total_Precipitation_Accumulation
0.45 0.35 0.42 0.47 0.41 0.45 0.60 0.59 0.47 0.24 0.16 0.16 0.15 0.15 0.13 0.12 0.09 0.08 0.09 0.09 0.09 0.11 0.14 0.20 0.28 0.36 0.48 0.52 0.45 0.44 0.49 0.58 0.69 0.74 0.76 0.79 0.88 0.99 1.04 1.10 1.14 1.14 1.16 1.14
0.43 0.29 0.33 0.35 0.29 0.31 0.37 0.33 0.29 0.19 0.19 0.15 0.13 0.13 0.13 0.13 0.12 0.10 0.10 0.10 0.10 0.11 0.11 0.16 0.28 0.39 0.49 0.56 0.56 0.55 0.63 0.69 0.76 0.81 0.81 0.81 0.87 1.00 1.09 1.12 1.20 1.22 1.19 1.15
0.61 0.34 0.52 0.53 0.31 0.28 0.30 0.28 0.26 0.26 0.21 0.15 0.14 0.15 0.17 0.17 0.17 0.16 0.13 0.11 0.11 0.12 0.12 0.17 0.32 0.45 0.48 0.56 0.61 0.66 0.72 0.73 0.72 0.76 0.81 0.79 0.79 0.90 1.02 1.04 1.01 1.03 1.04 1.04
0.83 0.63 0.93 0.48 0.24 0.21 0.23 0.27 0.29 0.29 0.23 0.18 0.16 0.17 0.20 0.22 0.22 0.19 0.16 0.16 0.15 0.15 0.14 0.17 0.28 0.34 0.36 0.46 0.56 0.61 0.65 0.71 0.73 0.72 0.76 0.80 0.78 0.75 0.77 0.84 0.91 0.88 0.83 0.80
1.10 0.83 0.49 0.22 0.20 0.25 0.27 0.33 0.35 0.31 0.26 0.21 0.17 0.14 0.19 0.21 0.21 0.19 0.18 0.17 0.16 0.15 0.15 0.18 0.22 0.26 0.29 0.36 0.44 0.51 0.55 0.58 0.63 0.64 0.67 0.71 0.75 0.71 0.65 0.67 0.73 0.77 0.75 0.71
1.23 0.91 0.45 0.28 0.20 0.20 0.23 0.36 0.33 0.28 0.28 0.26 0.25 0.38 0.34 0.26 0.19 0.17 0.15 0.13 0.12 0.11 0.12 0.15 0.19 0.23 0.27 0.32 0.33 0.38 0.41 0.42 0.43 0.45 0.51 0.51 0.53 0.55 0.54 0.57 0.60 0.61 0.66 0.68
1.05 0.81 0.34 0.18 0.14 0.17 0.39 0.52 0.35 0.29 0.28 0.29 0.37 0.47 0.37 0.26 0.21 0.18 0.14 0.11 0.09 0.09 0.11 0.15 0.19 0.22 0.25 0.28 0.28 0.31 0.32 0.29 0.29 0.33 0.35 0.37 0.40 0.43 0.45 0.47 0.51 0.56 0.59 0.63
0.80 0.92 0.47 0.19 0.19 0.37 0.53 0.34 0.29 0.28 0.26 0.28 0.26 0.23 0.21 0.20 0.18 0.16 0.15 0.13 0.11 0.11 0.12 0.15 0.17 0.19 0.21 0.25 0.26 0.27 0.29 0.26 0.25 0.28 0.32 0.35 0.37 0.39 0.42 0.45 0.50 0.53 0.57 0.62
0.60 0.53 0.33 0.26 0.30 0.32 0.28 0.26 0.24 0.25 0.24 0.26 0.24 0.20 0.18 0.17 0.15 0.14 0.14 0.14 0.14 0.14 0.14 0.14 0.15 0.15 0.18 0.19 0.20 0.22 0.26 0.26 0.26 0.27 0.30 0.36 0.41 0.42 0.44 0.45 0.51 0.56 0.57 0.61
0.36 0.28 0.25 0.23 0.22 0.21 0.18 0.19 0.19 0.19 0.23 0.24 0.22 0.18 0.15 0.12 0.11 0.11 0.11 0.12 0.15 0.14 0.13 0.14 0.13 0.13 0.13 0.13 0.16 0.20 0.25 0.28 0.28 0.28 0.31 0.35 0.40 0.44 0.48 0.54 0.61 0.66 0.65 0.64
0.25 0.17 0.16 0.17 0.17 0.15 0.13 0.11 0.11 0.10 0.12 0.16 0.16 0.15 0.14 0.12 0.11 0.12 0.13 0.14 0.13 0.13 0.12 0.12 0.12 0.13 0.13 0.12 0.14 0.19 0.22 0.26 0.30 0.31 0.32 0.35 0.37 0.41 0.47 0.51 0.69 0.86 0.78 0.75
0.21 0.14 0.13 0.13 0.11 0.10 0.11 0.10 0.12 0.12 0.10 0.09 0.10 0.12 0.12 0.13 0.14 0.15 0.15 0.15 0.14 0.12 0.10 0.09 0.10 0.12 0.12 0.12 0.13 0.17 0.21 0.24 0.29 0.33 0.34 0.35 0.38 0.41 0.43 0.45 0.52 0.56 0.61 0.72
0.12 0.09 0.09 0.08 0.07 0.07 0.09 0.11 0.12 0.11 0.10 0.09 0.09 0.10 0.11 0.12 0.13 0.13 0.13 0.14 0.13 0.11 0.10 0.10 0.10 0.11 0.13 0.13 0.13 0.17 0.23 0.27 0.30 0.31 0.34 0.38 0.41 0.46 0.45 0.43 0.44 0.45 0.48 0.57
0.08 0.09 0.10 0.09 0.08 0.08 0.09 0.09 0.10 0.09 0.09 0.08 0.08 0.08 0.09 0.10 0.10 0.11 0.12 0.12 0.10 0.09 0.08 0.09 0.10 0.11 0.12 0.13 0.14 0.17 0.23 0.29 0.34 0.33 0.35 0.39 0.42 0.46 0.49 0.50 0.50 0.45 0.45 0.52
0.08 0.09 0.10 0.08 0.08 0.08 0.07 0.07 0.08 0.08 0.06 0.05 0.05 0.07 0.09 0.10 0.11 0.12 0.11 0.10 0.08 0.08 0.08 0.08 0.10 0.11 0.11 0.13 0.15 0.18 0.23 0.30 0.37 0.39 0.39 0.41 0.42 0.44 0.47 0.47 0.47 0.46 0.47 0.56
0.10 0.09 0.08 0.08 0.08 0.07 0.07 0.08 0.09 0.08 0.06 0.05 0.06 0.07 0.09 0.10 0.11 0.11 0.10 0.09 0.08 0.08 0.09 0.10 0.12 0.12 0.12 0.15 0.18 0.20 0.24 0.34 0.43 0.46 0.45 0.47 0.46 0.47 0.49 0.49 0.48 0.48 0.53 0.60
0.12 0.10 0.09 0.08 0.07 0.08 0.09 0.10 0.10 0.10 0.08 0.06 0.08 0.09 0.10 0.10 0.10 0.10 0.09 0.09 0.08 0.08 0.09 0.11 0.13 0.14 0.15 0.18 0.22 0.24 0.27 0.33 0.42 0.47 0.48 0.49 0.53 0.53 0.53 0.55 0.56 0.53 0.52 0.56
0.13 0.14 0.13 0.12 0.11 0.11 0.10 0.09 0.10 0.10 0.09 0.09 0.09 0.11 0.12 0.12 0.12 0.11 0.10 0.10 0.09 0.09 0.10 0.11 0.14 0.16 0.17 0.20 0.25 0.27 0.32 0.37 0.44 0.50 0.52 0.53 0.58 0.59 0.58 0.58 0.57 0.57 0.53 0.55
0.11 0.12 0.12 0.12 0.13 0.14 0.13 0.10 0.10 0.11 0.11 0.11 0.12 0.13 0.14 0.15 0.14 0.14 0.12 0.10 0.10 0.11 0.12 0.13 0.17 0.17 0.18 0.23 0.31 0.35 0.40 0.45 0.50 0.50 0.50 0.58 0.61 0.57 0.59 0.60 0.61 0.60 0.58 0.59
0.12 0.11 0.12 0.13 0.14 0.15 0.14 0.12 0.11 0.12 0.13 0.14 0.14 0.16 0.17 0.17 0.17 0.17 0.16 0.15 0.14 0.15 0.13 0.15 0.17 0.17 0.21 0.28 0.40 0.45 0.48 0.50 0.54 0.55 0.54 0.58 0.62 0.63 0.63 0.65 0.66 0.65 0.63 0.63
0.14 0.14 0.15 0.15 0.14 0.14 0.15 0.15 0.15 0.15 0.15 0.15 0.17 0.20 0.20 0.21 0.20 0.19 0.19 0.18 0.18 0.18 0.17 0.17 0.18 0.24 0.32 0.42 0.47 0.46 0.48 0.54 0.59 0.63 0.63 0.64 0.67 0.68 0.68 0.69 0.70 0.72 0.72 0.71
0.17 0.17 0.18 0.18 0.16 0.15 0.15 0.15 0.16 0.16 0.17 0.17 0.19 0.21 0.22 0.23 0.22 0.21 0.20 0.20 0.20 0.24 0.23 0.20 0.24 0.36 0.43 0.49 0.45 0.46 0.49 0.55 0.62 0.66 0.69 0.69 0.73 0.76 0.74 0.74 0.78 0.78 0.78 0.77
0.20 0.21 0.20 0.20 0.18 0.17 0.15 0.14 0.15 0.17 0.19 0.20 0.22 0.23 0.24 0.25 0.25 0.25 0.25 0.23 0.23 0.28 0.28 0.27 0.34 0.42 0.47 0.46 0.43 0.45 0.51 0.57 0.64 0.71 0.75 0.76 0.78 0.81 0.83 0.83 0.83 0.83 0.83 0.81
0.22 0.21 0.21 0.20 0.19 0.18 0.17 0.17 0.17 0.18 0.18 0.19 0.21 0.22 0.24 0.25 0.24 0.23 0.26 0.28 0.29 0.32 0.31 0.35 0.41 0.45 0.47 0.46 0.47 0.51 0.59 0.67 0.74 0.80 0.83 0.84 0.83 0.85 0.88 0.91 0.91 0.87 0.84 0.83
0.26 0.25 0.23 0.22 0.22 0.22 0.21 0.20 0.18 0.18 0.18 0.18 0.19 0.21 0.24 0.27 0.29 0.29 0.29 0.32 0.35 0.37 0.37 0.40 0.43 0.46 0.46 0.49 0.55 0.63 0.70 0.78 0.89 0.96 0.96 0.93 0.90 0.90 0.91 0.94 0.95 0.92 0.89 0.86
0.30 0.30 0.28 0.27 0.27 0.27 0.25 0.24 0.23 0.21 0.22 0.22 0.23 0.24 0.26 0.30 0.32 0.33 0.34 0.37 0.39 0.41 0.41 0.44 0.47 0.50 0.54 0.59 0.65 0.70 0.74 0.78 0.84 0.91 0.92 0.93 0.92 0.92 0.94 0.96 0.95 0.93 0.91 0.87
0.31 0.30 0.28 0.27 0.28 0.29 0.29 0.30 0.30 0.30 0.30 0.31 0.32 0.32 0.32 0.34 0.36 0.36 0.37 0.40 0.43 0.45 0.46 0.49 0.52 0.55 0.61 0.68 0.72 0.75 0.78 0.80 0.85 0.93 0.97 0.96 0.95 0.96 0.97 0.97 0.97 0.95 0.92 0.89